Regional Weather Roundup
Issued by NWS

Home | Current Version | Previous Version | Text Only | Print | Product List | Glossary On
Versions: 1 2 3 4 5 6 7 8 9 10 11 12 13 14 15 16 17 18 19 20 21 22 23 24 25 26 27 28 29 30 31 32 33 34 35 36 37 38 39 40 41 42 43 44 45 46 47 48 49 50
000
ASUS43 KTOP 280208
RWRKS

WEATHER ROUNDUP FOR KANSAS
NATIONAL WEATHER SERVICE GOODLAND KS
800 PM CST TUE JAN 27 2015

NOTE:  "FAIR" INDICATES FEW OR NO CLOUDS BELOW 12,000 FEET WITH NO
SIGNIFICANT WEATHER AND/OR OBSTRUCTIONS TO VISIBILITY.

KSZ001>006-013>018-027>032-041>047-280300-
NORTHWEST KANSAS

CITY           SKY/WX    TMP DP  RH WIND       PRES   REMARKS
GOODLAND       CLOUDY    53  29  39 S9        29.98S
HAYS           CLEAR     57  27  30 S6        29.94F
HILL CITY      CLEAR     47  28  47 CALM      29.93F
RUSSELL        CLEAR     58  29  33 SW14      29.91F
$$

KSZ061>065-074>080-084>089-280300-
SOUTHWEST KANSAS

CITY           SKY/WX    TMP DP  RH WIND       PRES   REMARKS
DODGE CITY     MOCLDY    56  30  37 SW10      30.00S
ELKHART          N/A     54  31  41 SW15        N/A
GARDEN CITY    CLOUDY    53  31  42 S8        29.99S
LIBERAL        MOCLDY    55  30  38 SW12      30.04F
PRATT          CLEAR     54  30  40 SW10      30.00S
$$

KSZ066>073-081>083-090>101-280300-
SOUTHEAST KANSAS

CITY           SKY/WX    TMP DP  RH WIND       PRES   REMARKS
CHANUTE        CLEAR     48  33  56 E9        30.06S
COFFEYVILLE    CLEAR     50  33  52 E5        30.05S
HUTCHINSON     CLEAR     54  35  48 SE6       29.97S
MEDICINE LODGE   N/A     65  28  24 SW5       29.98S
NEWTON         CLEAR     55  34  44 S12       30.01S
PARSONS        CLEAR     51  34  52 E3        30.06S
WICHITA INTL   CLEAR     59  36  42 S13       29.98F
WICHITA JABRA  CLEAR     57  36  45 S10       29.99S
WICHITA MCCONL CLEAR     57  37  46 SE12      29.99F
WINFIELD       CLEAR     59  31  34 SE8       30.02S
$$

KSZ007>012-019>026-033>040-048>060-102>105-280300-
NORTHEAST KANSAS

CITY           SKY/WX    TMP DP  RH WIND       PRES   REMARKS
CONCORDIA      CLEAR     53  35  50 SE12      29.94F
EMPORIA        CLEAR     48  34  58 SE9       30.01F
LAWRENCE       CLEAR     45  31  58 E10       30.07S
MANHATTAN      CLEAR     52  35  52 E5        30.00S
MARYSVILLE     CLEAR     46  32  57 SE14      29.99F
OLATHE IND     CLEAR     45  32  60 E8        30.09S
OLATHE EXE     CLEAR     46  31  55 E7        30.09S
SALINA         CLEAR     57  38  48 S10       29.93F
TOPEKA BILLARD CLEAR     48  32  53 E12       30.06R
TOPEKA FORBES  CLEAR     49  32  52 SE12      30.04S
$$


USA.gov is the U.S. government's official web portal to all federal, state and local government web resources and services.